When you browse on this site, cookies collect data to enhance your experience and personalize the content and advertising you see.
Visit our Privacy Policy to learn more. By continuing to use the site, you agree to this use of cookies and data.
  • Em Portugal
  • Lista de países
  • Para 7 dias
  • Temperatura da água
  • Mapa do tempo
  • Widgets de tempo
  • user-avatar
    Iniciar Sessão

    Previsão horária em Janowiec

    Hoje, 25 Agosto, Domingo

    Tempo Temperatura Precipitação Vento Pressão Humidade
    00:00 +18°C° 0 mm 2 m/s 756 mmHg 68%
    01:00 +17°C° 0 mm 2 m/s 756 mmHg 71%
    02:00 +17°C° 0 mm 2 m/s 756 mmHg 72%
    03:00 +17°C° 0 mm 2 m/s 755 mmHg 73%
    04:00 +16°C° 0 mm 2 m/s 755 mmHg 75%
    05:00 +17°C° 0 mm 2 m/s 755 mmHg 71%
    06:00 +18°C° 0 mm 3 m/s 755 mmHg 67%
    07:00 +19°C° 0 mm 3 m/s 755 mmHg 64%
    08:00 +21°C° 0 mm 3 m/s 756 mmHg 57%
    09:00 +23°C° 0 mm 4 m/s 756 mmHg 50%
    10:00 +26°C° 0 mm 4 m/s 756 mmHg 44%
    11:00 +27°C° 0 mm 4 m/s 756 mmHg 42%
    12:00 +27°C° 0 mm 4 m/s 756 mmHg 41%
    13:00 +28°C° 0 mm 4 m/s 755 mmHg 40%
    14:00 +28°C° 0 mm 4 m/s 755 mmHg 40%
    15:00 +28°C° 0 mm 4 m/s 755 mmHg 40%
    16:00 +28°C° 0 mm 3 m/s 755 mmHg 41%
    17:00 +26°C° 0 mm 3 m/s 755 mmHg 46%
    18:00 +24°C° 0 mm 3 m/s 754 mmHg 52%
    19:00 +21°C° 0 mm 2 m/s 754 mmHg 58%
    20:00 +20°C° 0 mm 2 m/s 754 mmHg 61%
    21:00 +19°C° 0 mm 2 m/s 755 mmHg 63%
    22:00 +19°C° 0 mm 3 m/s 755 mmHg 66%
    23:00 +18°C° 0 mm 2 m/s 755 mmHg 68%

    Amanhã, 26 Agosto, Segunda-feira

    Tempo Temperatura Precipitação Vento Pressão Humidade
    00:00 +18°C° 0 mm 2 m/s 754 mmHg 70%
    01:00 +17°C° 0 mm 2 m/s 754 mmHg 72%
    02:00 +17°C° 0 mm 2 m/s 754 mmHg 73%
    03:00 +17°C° 0 mm 2 m/s 754 mmHg 74%
    04:00 +16°C° 0 mm 2 m/s 754 mmHg 75%
    05:00 +17°C° 0 mm 3 m/s 754 mmHg 72%
    06:00 +18°C° 0 mm 3 m/s 754 mmHg 69%
    07:00 +19°C° 0 mm 3 m/s 754 mmHg 66%
    08:00 +21°C° 0 mm 3 m/s 754 mmHg 61%
    09:00 +24°C° 0 mm 3 m/s 754 mmHg 56%
    10:00 +26°C° 0 mm 4 m/s 754 mmHg 51%
    11:00 +27°C° 0 mm 4 m/s 754 mmHg 49%
    12:00 +28°C° 0 mm 3 m/s 754 mmHg 47%
    13:00 +29°C° 0 mm 3 m/s 754 mmHg 45%
    14:00 +29°C° 0 mm 3 m/s 753 mmHg 46%
    15:00 +29°C° 0 mm 3 m/s 753 mmHg 46%
    16:00 +29°C° 0 mm 3 m/s 753 mmHg 47%
    17:00 +27°C° 0 mm 3 m/s 753 mmHg 53%
    18:00 +25°C° 0 mm 2 m/s 752 mmHg 60%
    19:00 +24°C° 0 mm 2 m/s 752 mmHg 67%
    20:00 +23°C° 0 mm 2 m/s 752 mmHg 69%
    21:00 +21°C° 0 mm 2 m/s 752 mmHg 72%
    22:00 +20°C° 0 mm 2 m/s 752 mmHg 74%
    23:00 +20°C° 0 mm 2 m/s 752 mmHg 76%

    Depois de amanhã, 27 Agosto, Terça-feira

    Tempo Temperatura Precipitação Vento Pressão Humidade
    00:00 +19°C° 0 mm 2 m/s 752 mmHg 78%
    01:00 +19°C° 0 mm 2 m/s 752 mmHg 80%
    02:00 +19°C° 0 mm 2 m/s 752 mmHg 80%
    03:00 +18°C° 0 mm 3 m/s 752 mmHg 81%
    04:00 +18°C° 0 mm 3 m/s 752 mmHg 82%
    05:00 +19°C° 0 mm 3 m/s 752 mmHg 79%
    06:00 +20°C° 0 mm 3 m/s 752 mmHg 76%
    07:00 +21°C° 0 mm 3 m/s 752 mmHg 73%
    08:00 +24°C° 0 mm 3 m/s 752 mmHg 67%
    09:00 +26°C° 0 mm 4 m/s 752 mmHg 61%
    10:00 +28°C° 0 mm 4 m/s 753 mmHg 56%
    11:00 +29°C° 0 mm 4 m/s 752 mmHg 52%
    12:00 +30°C° 0 mm 3 m/s 752 mmHg 49%
    13:00 +31°C° 0 mm 3 m/s 752 mmHg 45%
    14:00 +31°C° 0 mm 3 m/s 752 mmHg 45%
    15:00 +31°C° 0 mm 3 m/s 751 mmHg 45%
    16:00 +31°C° 0 mm 3 m/s 751 mmHg 44%
    17:00 +30°C° 0 mm 3 m/s 751 mmHg 50%
    18:00 +28°C° 0 mm 2 m/s 751 mmHg 57%
    19:00 +26°C° 0 mm 2 m/s 751 mmHg 63%
    20:00 +26°C° 0 mm 2 m/s 751 mmHg 64%
    21:00 +25°C° 0 mm 3 m/s 751 mmHg 66%
    22:00 +24°C° 0 mm 3 m/s 751 mmHg 67%
    23:00 +22°C° 0.4 mm 3 m/s 751 mmHg 72%

    28 Agosto, Quarta-feira

    Tempo Temperatura Precipitação Vento Pressão Humidade
    00:00 +23°C° 0.4 mm 2 m/s 751 mmHg 76%
    01:00 +21°C° 0.4 mm 2 m/s 751 mmHg 81%
    02:00 +21°C° 0.8 mm 2 m/s 750 mmHg 83%
    03:00 +20°C° 0.8 mm 2 m/s 750 mmHg 86%
    04:00 +20°C° 0.8 mm 2 m/s 750 mmHg 89%
    05:00 +20°C° 0.4 mm 3 m/s 750 mmHg 88%
    06:00 +21°C° 0.4 mm 3 m/s 750 mmHg 87%
    07:00 +21°C° 0.4 mm 3 m/s 750 mmHg 86%
    08:00 +23°C° 0.1 mm 4 m/s 750 mmHg 80%
    09:00 +25°C° 0.1 mm 4 m/s 750 mmHg 74%
    10:00 +27°C° 0.1 mm 4 m/s 750 mmHg 68%
    11:00 +29°C° 0 mm 4 m/s 750 mmHg 61%
    12:00 +30°C° 0 mm 4 m/s 750 mmHg 54%
    13:00 +33°C° 0 mm 5 m/s 749 mmHg 47%
    14:00 +33°C° 0 mm 4 m/s 749 mmHg 47%
    15:00 +33°C° 0 mm 4 m/s 749 mmHg 48%
    16:00 +33°C° 0 mm 4 m/s 748 mmHg 48%
    17:00 +30°C° 0.3 mm 4 m/s 748 mmHg 55%
    18:00 +28°C° 0.3 mm 3 m/s 748 mmHg 61%
    19:00 +26°C° 0.3 mm 3 m/s 747 mmHg 68%
    20:00 +25°C° 1.3 mm 3 m/s 748 mmHg 72%
    21:00 +24°C° 1.3 mm 3 m/s 748 mmHg 76%
    22:00 +22°C° 1.3 mm 3 m/s 748 mmHg 80%
    23:00 +22°C° 0.5 mm 3 m/s 748 mmHg 82%

    29 Agosto, Quinta-feira

    Tempo Temperatura Precipitação Vento Pressão Humidade
    00:00 +21°C° 0.5 mm 3 m/s 747 mmHg 84%
    01:00 +21°C° 0.5 mm 3 m/s 747 mmHg 87%
    02:00 +21°C° 0.4 mm 3 m/s 747 mmHg 88%
    03:00 +20°C° 0.4 mm 3 m/s 747 mmHg 90%
    04:00 +20°C° 0.4 mm 4 m/s 747 mmHg 92%
    05:00 +21°C° 0.2 mm 4 m/s 747 mmHg 89%
    06:00 +21°C° 0.2 mm 4 m/s 747 mmHg 86%
    07:00 +21°C° 0.2 mm 4 m/s 747 mmHg 84%
    08:00 +23°C° 0 mm 4 m/s 747 mmHg 77%
    09:00 +25°C° 0 mm 4 m/s 747 mmHg 71%
    10:00 +27°C° 0 mm 5 m/s 748 mmHg 64%
    11:00 +28°C° 0 mm 5 m/s 747 mmHg 60%
    12:00 +29°C° 0 mm 5 m/s 747 mmHg 55%
    13:00 +32°C° 0 mm 5 m/s 747 mmHg 51%
    14:00 +32°C° 0 mm 5 m/s 747 mmHg 51%
    15:00 +32°C° 0 mm 4 m/s 747 mmHg 51%
    16:00 +32°C° 0 mm 4 m/s 747 mmHg 51%
    17:00 +29°C° 0.4 mm 4 m/s 746 mmHg 58%
    18:00 +27°C° 0.4 mm 3 m/s 746 mmHg 65%
    19:00 +25°C° 0.4 mm 3 m/s 746 mmHg 72%
    20:00 +24°C° 1.1 mm 3 m/s 747 mmHg 76%
    21:00 +22°C° 1.1 mm 3 m/s 747 mmHg 81%
    22:00 +21°C° 1.1 mm 3 m/s 747 mmHg 85%
    23:00 +21°C° 0.4 mm 3 m/s 747 mmHg 87%

    30 Agosto, Sexta-feira

    Tempo Temperatura Precipitação Vento Pressão Humidade
    00:00 +21°C° 0.4 mm 2 m/s 747 mmHg 89%
    01:00 +20°C° 0.4 mm 2 m/s 747 mmHg 90%
    02:00 +21°C° 0.3 mm 1 m/s 747 mmHg 92%
    03:00 +21°C° 0.3 mm 1 m/s 748 mmHg 93%
    04:00 +20°C° 0.3 mm 1 m/s 748 mmHg 95%
    05:00 +20°C° 0.2 mm 2 m/s 748 mmHg 93%
    06:00 +20°C° 0.2 mm 3 m/s 748 mmHg 91%
    07:00 +20°C° 0.2 mm 3 m/s 749 mmHg 90%
    08:00 +21°C° 0.1 mm 4 m/s 749 mmHg 86%
    09:00 +22°C° 0.1 mm 4 m/s 750 mmHg 81%
    10:00 +23°C° 0.1 mm 4 m/s 750 mmHg 77%
    11:00 +23°C° 0 mm 4 m/s 751 mmHg 75%
    12:00 +23°C° 0 mm 4 m/s 751 mmHg 73%
    13:00 +23°C° 0 mm 4 m/s 751 mmHg 72%
    14:00 +23°C° 0 mm 4 m/s 751 mmHg 72%
    15:00 +22°C° 0 mm 4 m/s 751 mmHg 73%
    16:00 +21°C° 0 mm 3 m/s 751 mmHg 74%
    17:00 +20°C° 0 mm 3 m/s 751 mmHg 75%
    18:00 +19°C° 0 mm 3 m/s 751 mmHg 77%
    19:00 +19°C° 0 mm 2 m/s 751 mmHg 78%
    20:00 +18°C° 0 mm 2 m/s 752 mmHg 81%
    21:00 +17°C° 0 mm 2 m/s 752 mmHg 85%
    22:00 +16°C° 0 mm 1 m/s 752 mmHg 88%
    23:00 +15°C° 0 mm 1 m/s 752 mmHg 89%
    Mostrar mais